Regional Weather Roundup
Issued by NWS

Home | Current Version | Previous Version | Text Only | Print | Product List | Glossary On
Versions: 1 2 3 4 5 6 7 8 9 10 11 12 13 14 15 16 17 18 19 20 21 22 23 24 25 26 27 28 29 30 31 32 33 34 35 36 37 38 39 40 41 42 43 44 45 46 47 48 49 50
000
ASUS42 KTBW 232110
RWRFL
FLORIDA REGIONAL WEATHER ROUNDUP
NATIONAL WEATHER SERVICE TAMPA BAY RUSKIN FL
400 PM EST SUN NOV 23 2014

NOTE: "FAIR" INDICATES FEW OR NO CLOUDS BELOW 12,000 FEET WITH NO
SIGNIFICANT WEATHER AND/OR OBSTRUCTIONS TO VISIBILITY.


FLZ001>010-012>015-112-114-115-232200-
PANHANDLE FLORIDA

CITY           SKY/WX    TMP DP  RH WIND       PRES   REMARKS
PENSACOLA      CLOUDY    65  64  97 SW15G21   29.71S
PENSACOLA NAS  CLOUDY    67  66  97 SW16      29.71R
MILTON NAS     CLOUDY    66  62  87 S16G23    29.71R
CRESTVIEW      LGT RAIN  63  63 100 S12       29.74S FOG
DUKE FIELD     PTSUNNY   63  63 100 S12       29.72F
VALPARAISO     LGT RAIN  63  62  96 SW6       29.72F FOG
MARY ESTHER    CLOUDY    66  61  82 SW13      29.72F
TRI COUNTY     RAIN      64  62  93 MISG      29.78S FOG
PANAMA CITY    TSTM      65  62  90 SW10      29.78S
TYNDALL AFB    RAIN      64  64 100 E2        29.80F FOG
APALACHICOLA   LGT RAIN  68  64  87 W7        29.81S FOG

STATION/POSITION SKY/WX   TEMP    WIND        PRES    WAVE   SWELL
                          AIR SEA DIR/SP/G            HT/PER HT/PER
                          (F)     (DEG/KT/KT) (MB)    (FT/S) (FT/S)
30.1N   87.6W              70 68  230/ 17/ 23 1005.1R   8/ 6   3/ 9
29.2N   88.2W              71 72  220/ 21/ 27 1007.0S   8/ 7   2/14
28.7N   86.0W              73 76  290/ 14/ 17 1009.9    8/ 8   5/ 8
PANAMA CITY BEAC           65 65  260/ 19/ 22 1008.3F
CAPE SAN BLAS    NOT AVBL
TOWER C                    64     300/ 19/ 21 1009.8R
28.5N   84.5W              74 71  180/ 14/ 16 1009.7R   6/ 7   3/ 7

$$
FLZ011-016>038-118-127-128-134-139-239-232200-
NORTH FLORIDA

CITY           SKY/WX    TMP DP  RH WIND       PRES   REMARKS
MARIANNA       HVY RAIN  65  65 100 SW10      29.79S FOG
TALLAHASSEE    CLOUDY    74  69  85 S14G24    29.80R THUNDER
PERRY          CLOUDY    73  71  93 S16G24    29.83S
CROSS CITY       N/A     77  71  82 S18G31    29.84S
LAKE CITY      CLOUDY    77  70  78 S14G28    29.84S
GAINESVILLE    LGT RAIN  77  73  87 S7        29.85S
MAYPORT NAS    CLOUDY    72  68  87 SE12      29.85F
JACKSONVILLE   CLOUDY    77  72  84 SE10      29.83F
JAX NAS        CLOUDY    80  69  69 S8        29.85F
JAX CRAIG      CLOUDY    78  70  76 SE7       29.85F
JAX CECIL      PTSUNNY   79  72  78 S8        29.85S
FERNANDINA BEA FAIR      75  70  83 SE12      29.84F
ST AUGUSTINE   CLOUDY    80  71  74 S8        29.87S

STATION/POSITION SKY/WX   TEMP    WIND        PRES    WAVE   SWELL
                          AIR SEA DIR/SP/G            HT/PER HT/PER
                          (F)     (DEG/KT/KT) (MB)    (FT/S) (FT/S)
SHELL POINT                64     160/ 14/ 17   N/A
KEATON BEACH               66     160/ 17/ 20 1010.5S
CEDAR KEY                  69     200/ 18/ 20 1011.4F
FERNANDINA                 71 60  150/  9/ 14 1010.0S
30.7N   81.3W                 61                N/A     6/ 8   2/11
MAYPORT                    71 63  160/  6/ 10   N/A
31.4N   80.9W              68 64  160/ 10/ 12 1011.3F   6/ 8   5/ 8
ST AUGUSTINE               68     170/  9/ 10 1012.0S

$$
FLZ040-043>046-052-053-057-058-063-144-232200-
INTERIOR CENTRAL FLORIDA

CITY           SKY/WX    TMP DP  RH WIND       PRES   REMARKS
OCALA          PTSUNNY   81  70  69 S14       29.86S
THE VILLAGES     N/A     82  70  65 S8        29.77S
LEESBURG       CLOUDY    82  69  64 S10       29.87S
SANFORD        MOSUNNY   84  69  60 S14G21    29.87S
ORLANDO EXEC   SUNNY     84  71  65 S15       29.87S
ORLANDO INTL   PTSUNNY   83  71  67 S15       29.88R
KISSIMMEE      PTSUNNY   82  73  74 SE14      29.88S
WINTER HAVEN   SUNNY     84  70  62 S13       29.89S
LAKELAND       MOSUNNY   84  70  61 S13G25    29.88S
OKEECHOBEE     SUNNY    N/A N/A N/A SE14G21   29.91S

$$
FLZ041-047-054-059-064-141-147-232200-
EAST CENTRAL FLORIDA

CITY           SKY/WX    TMP DP  RH WIND       PRES   REMARKS
ORMOND BEACH   MOSUNNY   82  68  61 SW12G17   29.87S
DAYTONA BEACH  PTSUNNY   84  69  60 S13G24    29.88R
DELAND         PTCLDY    82  70  65 S8G21     29.89R
NEW SMYRNA BEA MOSUNNY   84  72  65 S16       29.88
JFK SPACE CTR  PTSUNNY   78  71  79 S13       29.89S
TITUSVILLE     PTSUNNY   79  72  78 SE12      29.90S
CAPE CANAVERAL MOSUNNY   78  72  81 S17       29.89S
PATRICK AFB    MOSUNNY   76  73  88 S20       29.90S
MELBOURNE      PTSUNNY   81  73  76 SE12      29.90S
VERO BEACH     PTSUNNY   78  71  79 SE15      29.91F
FT PIERCE      PTSUNNY   80  73  79 SE14      29.91S
STUART         SHOWER    81  72  74 SE18G24   29.92S

STATION/POSITION SKY/WX   TEMP    WIND        PRES    WAVE   SWELL
                          AIR SEA DIR/SP/G            HT/PER HT/PER
                          (F)     (DEG/KT/KT) (MB)    (FT/S) (FT/S)
28.5N   80.2W              78 76  160/ 19/ 23 1012.6F
28.9N   78.5W              79 78  160/ 19/ 25 1014.1F   9/10   5/10
TRIDENT PIER               74 69  150/  9/ 13 1012.0S
28.4N   80.5W                 69                N/A     5/ 9   2/11
27.6N   80.2W                 72                N/A     5/10   2/11

$$
FLZ050-056-061-142-242-148-248-149-249-151-251-155-255-
160-260-232200-
WEST CENTRAL FLORIDA

CITY           SKY/WX    TMP DP  RH WIND       PRES   REMARKS
CRYSTAL RIVER  FAIR      81  68  65 SW6       29.87R
INVERNESS      RAIN      79  70  73 S8G16     29.87S
BROOKSVILLE    MOSUNNY   82  70  66 S17G26    29.89R
ZEPHYRHILLS    FAIR      82  66  57 S13G21    29.89R
CLEARWATER     PTSUNNY   81  72  74 S23G31    29.88R
TAMPA INTL     MOSUNNY   77  69  76 S13       29.89R
TAMPA EXEC     PTSUNNY   86  70  58 SW13      29.88R
PLANT CITY     MOSUNNY   84  68  58 SW10G21   29.90R
MACDILL AFB    SUNNY     79  72  79 SW10      29.89R
PETER O KNIGHT MOSUNNY   79  70  73 SW8       29.89R
ST PETERSBURG  SUNNY     79  71  76 SW15G25   29.87R
SARASOTA       SUNNY     80  72  76 S22G29    29.86S
VENICE         FAIR      77  72  83 S16G23    29.90S

STATION/POSITION SKY/WX   TEMP    WIND        PRES    WAVE   SWELL
                          AIR SEA DIR/SP/G            HT/PER HT/PER
                          (F)     (DEG/KT/KT) (MB)    (FT/S) (FT/S)
CEDAR KEY                  69     200/ 18/ 20 1011.4F
28.5N   84.5W              74 71  180/ 14/ 16 1009.7R   6/ 7   3/ 7
27.3N   84.3W                 78                N/A     6/ 6
CLEARWATER BEACH           76 64  180/ 17/ 22 1011.5R
MIDDLE TAMPA BAY           76     200/ 18/ 22 1011.4F
VENICE                     72 68  150/ 14/ 16 1011.8F

$$
FLZ066-069-070-075>078-162-262-165-265-232200-
SOUTHWEST FLORIDA AND KEYS

CITY           SKY/WX    TMP DP  RH WIND       PRES   REMARKS
PUNTA GORDA    MOSUNNY   84  71  65 S20       29.91S
FT MYERS       MOSUNNY   84  71  65 SW13G20   29.88S
SOUTHWEST INTL MOSUNNY   84  71  65 S10       29.88F
NAPLES         PTSUNNY   82  72  71 S17       29.89S
MARCO ISLAND   MOCLDY    81  73  78 SE9       29.90S
MARATHON       MOSUNNY   82  77  84 SE8       29.89F
KEY WEST NAS   MOSUNNY   81  75  82 SE13      29.88F
KEY WEST INTL  SUNNY     81  81 100 SE10      29.89F

STATION/POSITION SKY/WX   TEMP    WIND        PRES    WAVE   SWELL
                          AIR SEA DIR/SP/G            HT/PER HT/PER
                          (F)     (DEG/KT/KT) (MB)    (FT/S) (FT/S)
VENICE                     72 68  150/ 14/ 16 1011.8F
NAPLES                     80 75  160/ 11/ 16 1012.8S
26.0N   85.6W              80 80  190/ 16/ 19 1009.9F   6/ 7
DRY TORTUGAS               78     150/ 12/ 13 1011.6F
NW FL BAY                  77     110/  5/  6 1013.3F
SAND KEY                   79     140/ 13/ 16 1011.8F
SOMBRERO KEY               81     140/ 17/ 18 1012.7F
LONG KEY                   80 76  150/ 11/ 13 1013.4F
MOLASSES REEF              80 78  140/ 14/ 17 1012.7F

$$
FLZ067-068-071>074-168-172>174-232200-
SOUTHEAST FLORIDA

CITY           SKY/WX    TMP DP  RH WIND       PRES   REMARKS
W PALM BEACH   PTSUNNY   83  74  74 S13       29.91S
FT LAUDER-EXEC PTSUNNY   80  74  81 SE15      29.92F
FT LAUDERDALE  MOSUNNY   81  73  76 SE12G20   29.92S
POMPANO BEACH  MOSUNNY   83  74  74 SE12      29.93S
PEMBROKE PINES PTSUNNY   81  73  76 SE15G23   29.93S
OPA LOCKA      CLOUDY    82  73  74 SE20      29.93S
MIAMI          PTSUNNY   80  74  81 SE15G29   29.93S
WEST KENDALL   MOSUNNY   81  74  79 SE10G18   29.92F
HOMESTEAD      PTSUNNY   81  73  78 SE13G18   29.92S

STATION/POSITION SKY/WX   TEMP    WIND        PRES    WAVE   SWELL
                          AIR SEA DIR/SP/G            HT/PER HT/PER
                          (F)     (DEG/KT/KT) (MB)    (FT/S) (FT/S)
PORT EVERGLADES            80     140/ 10/ 13 1013.4
VIRGINIA KEY               79 75  150/ 10/ 12 1013.9R
LAKE WORTH                 79 79  150/ 16/ 18 1013.1F


USA.gov is the U.S. government's official web portal to all federal, state and local government web resources and services.